CST,Max TemperatureF,Mean TemperatureF,Min TemperatureF,Max Dew PointF,MeanDew PointF,Min DewpointF,Max Humidity, Mean Humidity, Min Humidity, Max Sea Level PressureIn, Mean Sea Level PressureIn, Min Sea Level PressureIn, Max VisibilityMiles, Mean VisibilityMiles, Min VisibilityMiles, Max Wind SpeedMPH, Mean Wind SpeedMPH, Max Gust SpeedMPH,PrecipitationIn, CloudCover, Events, WindDirDegrees
2012-12-1,84,68,52,54,43,31,90,53,19,29.91,29.85,29.76,10,10,8,25,15,33,0.00,0,,206
2012-12-2,80,60,39,54,41,29,70,54,31,30.02,29.92,29.84,10,10,10,20,9,,0.00,0,,220
2012-12-3,82,70,55,59,47,27,93,55,17,29.98,29.83,29.73,10,10,7,26,17,34,0.00,0,,219
2012-12-4,68,57,43,39,25,14,61,36,14,30.28,30.20,29.99,10,10,10,20,14,23,0.00,0,,3
2012-12-5,64,50,37,30,25,19,60,38,21,30.29,30.14,29.95,10,10,10,13,8,,0.00,0,,106
2012-12-6,73,55,37,41,34,28,93,55,22,29.93,29.80,29.70,10,10,7,21,11,28,0.00,0,,182
2012-12-7,55,47,39,39,37,33,86,68,55,29.89,29.83,29.78,10,10,10,13,9,,0.00,0,,337
2012-12-8,50,44,39,43,40,37,97,88,76,29.93,29.87,29.73,10,6,2,12,6,,0.00,5,,46
2012-12-9,54,43,32,45,31,8,100,69,23,30.16,29.88,29.69,10,6,0,26,12,33,0.00,3,Fog,360
2012-12-10,41,31,21,23,11,6,86,48,27,30.24,30.15,30.07,10,9,2,22,13,31,0.00,1,Snow,331
2012-12-11,48,33,18,19,13,7,71,46,24,30.18,30.12,30.07,10,10,10,9,5,,0.00,0,,154
2012-12-12,59,40,21,19,14,10,63,39,20,30.21,30.13,30.05,10,10,10,24,10,30,0.00,0,,152
2012-12-13,64,46,28,35,24,19,67,47,23,30.17,30.10,30.04,10,10,10,16,11,21,0.00,0,,152
2012-12-14,60,53,46,56,45,32,94,72,45,30.05,29.83,29.66,10,9,1,34,13,51,0.37,7,Rain,157
2012-12-15,60,52,44,40,36,33,71,56,38,29.83,29.75,29.70,10,10,10,20,15,24,0.00,0,,224
2012-12-16,66,52,39,37,32,20,82,55,17,29.78,29.72,29.63,10,10,10,22,10,,0.00,0,,271
2012-12-17,55,44,32,37,32,26,92,72,44,29.90,29.82,29.76,10,9,5,12,9,,0.00,0,,253
2012-12-18,64,48,33,32,29,24,72,51,27,29.80,29.74,29.69,10,10,10,12,6,,0.00,0,,298
2012-12-19,64,50,37,51,33,21,72,57,27,29.94,29.63,29.48,10,9,3,39,14,56,0.00,2,,211
2012-12-20,51,40,28,22,9,-3,55,34,11,30.39,30.29,29.99,10,10,10,30,21,41,0.00,0,,305
2012-12-21,64,42,21,13,7,0,63,30,7,30.39,30.29,30.19,10,10,10,17,9,23,0.00,0,,229
2012-12-22,61,46,30,33,15,7,65,33,12,30.19,30.06,29.89,10,10,10,24,11,29,0.00,0,,198
2012-12-23,55,44,32,34,25,21,76,55,29,29.96,29.88,29.82,10,10,10,21,9,,0.00,0,,329
2012-12-24,45,35,25,22,21,19,78,55,36,30.03,29.93,29.79,10,10,10,23,9,,0.00,1,,37
2012-12-25,36,28,19,27,18,10,93,76,66,30.29,29.99,29.73,10,6,0,34,24,44,0.00,7,Fog-Snow,358
2012-12-26,26,20,14,15,10,6,78,67,53,30.32,30.21,30.08,10,10,10,25,14,30,0.00,1,,10
2012-12-27,37,27,17,29,21,12,93,82,67,30.06,29.93,29.83,10,9,6,14,9,,0.00,1,,95
2012-12-28,34,29,24,28,21,17,93,73,50,30.22,30.04,29.89,10,10,4,23,13,26,0.00,4,,342
2012-12-29,48,34,21,25,20,15,78,63,33,30.42,30.34,30.22,10,10,10,13,8,,0.00,0,,300
2012-12-30,43,34,25,28,23,19,78,63,43,30.35,30.25,30.12,10,10,10,17,9,,0.00,1,,156
2012-12-31,46,40,32,43,35,28,100,89,70,30.11,30.01,29.91,10,7,2,16,11,,0.17,6,Rain,136